Date Hour Ending, MW ,,,,,,,,,,,,,,,,,
06/01/2017 1:00,112,,,,,,,,,,,,,,,,,
06/01/2017 2:00,107,,,,,,,,,,,,,,,,,
06/01/2017 3:00,60,,,,,,,,,,,,,,,,,
06/01/2017 4:00,68,,,,,,,,,,,,,,,,,
06/01/2017 5:00,75,,,,,,,,,,,,,,,,,
06/01/2017 6:00,131,,,,,,,,,,,,,,,,,
06/01/2017 7:00,175,,,,,,,,,,,,,,,,,
06/01/2017 8:00,242,,,,,,,,,,,,,,,,,
06/01/2017 9:00,264,,,,,,,,,,,,,,,,,
06/01/2017 10:00,283,,,,,,,,,,,,,,,,,
06/01/2017 11:00,263,,,,,,,,,,,,,,,,,
06/01/2017 12:00,282,,,,,,,,,,,,,,,,,
06/01/2017 13:00,288,,,,,,,,,,,,,,,,,
06/01/2017 14:00,277,,,,,,,,,,,,,,,,,
06/01/2017 15:00,276,,,,,,,,,,,,,,,,,
06/01/2017 16:00,277,,,,,,,,,,,,,,,,,
06/01/2017 17:00,287,,,,,,,,,,,,,,,,,
06/01/2017 18:00,298,,,,,,,,,,,,,,,,,
06/01/2017 19:00,237,,,,,,,,,,,,,,,,,
06/01/2017 20:00,220,,,,,,,,,,,,,,,,,
06/01/2017 21:00,189,,,,,,,,,,,,,,,,,
06/01/2017 22:00,186,,,,,,,,,,,,,,,,,
06/01/2017 23:00,157,,,,,,,,,,,,,,,,,
06/02/2017 0:00,131,,,,,,,,,,,,,,,,,
06/02/2017 1:00,69,,,,,,,,,,,,,,,,,
06/02/2017 2:00,17,,,,,,,,,,,,,,,,,
06/02/2017 3:00,24,,,,,,,,,,,,,,,,,
06/02/2017 4:00,-9,,,,,,,,,,,,,,,,,
06/02/2017 5:00,-21,,,,,,,,,,,,,,,,,
06/02/2017 6:00,-14,,,,,,,,,,,,,,,,,
06/02/2017 7:00,91,,,,,,,,,,,,,,,,,
06/02/2017 8:00,149,,,,,,,,,,,,,,,,,
06/02/2017 9:00,189,,,,,,,,,,,,,,,,,
06/02/2017 10:00,195,,,,,,,,,,,,,,,,,
06/02/2017 11:00,197,,,,,,,,,,,,,,,,,
06/02/2017 12:00,169,,,,,,,,,,,,,,,,,
06/02/2017 13:00,106,,,,,,,,,,,,,,,,,
06/02/2017 14:00,69,,,,,,,,,,,,,,,,,
06/02/2017 15:00,71,,,,,,,,,,,,,,,,,
06/02/2017 16:00,110,,,,,,,,,,,,,,,,,
06/02/2017 17:00,114,,,,,,,,,,,,,,,,,
06/02/2017 18:00,131,,,,,,,,,,,,,,,,,
06/02/2017 19:00,88,,,,,,,,,,,,,,,,,
06/02/2017 20:00,35,,,,,,,,,,,,,,,,,
06/02/2017 21:00,34,,,,,,,,,,,,,,,,,
06/02/2017 22:00,31,,,,,,,,,,,,,,,,,
06/02/2017 23:00,35,,,,,,,,,,,,,,,,,
06/03/2017 0:00,28,,,,,,,,,,,,,,,,,
06/03/2017 1:00,-1,,,,,,,,,,,,,,,,,
06/03/2017 2:00,-39,,,,,,,,,,,,,,,,,
06/03/2017 3:00,-35,,,,,,,,,,,,,,,,,
06/03/2017 4:00,-3,,,,,,,,,,,,,,,,,
06/03/2017 5:00,22,,,,,,,,,,,,,,,,,
06/03/2017 6:00,40,,,,,,,,,,,,,,,,,
06/03/2017 7:00,94,,,,,,,,,,,,,,,,,
06/03/2017 8:00,182,,,,,,,,,,,,,,,,,
06/03/2017 9:00,210,,,,,,,,,,,,,,,,,
06/03/2017 10:00,197,,,,,,,,,,,,,,,,,
06/03/2017 11:00,214,,,,,,,,,,,,,,,,,
06/03/2017 12:00,225,,,,,,,,,,,,,,,,,
06/03/2017 13:00,218,,,,,,,,,,,,,,,,,
06/03/2017 14:00,170,,,,,,,,,,,,,,,,,
06/03/2017 15:00,159,,,,,,,,,,,,,,,,,
06/03/2017 16:00,166,,,,,,,,,,,,,,,,,
06/03/2017 17:00,183,,,,,,,,,,,,,,,,,
06/03/2017 18:00,208,,,,,,,,,,,,,,,,,
06/03/2017 19:00,211,,,,,,,,,,,,,,,,,
06/03/2017 20:00,215,,,,,,,,,,,,,,,,,
06/03/2017 21:00,214,,,,,,,,,,,,,,,,,
06/03/2017 22:00,210,,,,,,,,,,,,,,,,,
06/03/2017 23:00,186,,,,,,,,,,,,,,,,,
06/04/2017 0:00,141,,,,,,,,,,,,,,,,,
06/04/2017 1:00,97,,,,,,,,,,,,,,,,,
06/04/2017 2:00,73,,,,,,,,,,,,,,,,,
06/04/2017 3:00,42,,,,,,,,,,,,,,,,,
06/04/2017 4:00,44,,,,,,,,,,,,,,,,,
06/04/2017 5:00,48,,,,,,,,,,,,,,,,,
06/04/2017 6:00,36,,,,,,,,,,,,,,,,,
06/04/2017 7:00,38,,,,,,,,,,,,,,,,,
06/04/2017 8:00,48,,,,,,,,,,,,,,,,,
06/04/2017 9:00,115,,,,,,,,,,,,,,,,,
06/04/2017 10:00,138,,,,,,,,,,,,,,,,,
06/04/2017 11:00,145,,,,,,,,,,,,,,,,,
06/04/2017 12:00,161,,,,,,,,,,,,,,,,,
06/04/2017 13:00,171,,,,,,,,,,,,,,,,,
06/04/2017 14:00,135,,,,,,,,,,,,,,,,,
06/04/2017 15:00,84,,,,,,,,,,,,,,,,,
06/04/2017 16:00,78,,,,,,,,,,,,,,,,,
06/04/2017 17:00,99,,,,,,,,,,,,,,,,,
06/04/2017 18:00,120,,,,,,,,,,,,,,,,,
06/04/2017 19:00,126,,,,,,,,,,,,,,,,,
06/04/2017 20:00,130,,,,,,,,,,,,,,,,,
06/04/2017 21:00,156,,,,,,,,,,,,,,,,,
06/04/2017 22:00,168,,,,,,,,,,,,,,,,,
06/04/2017 23:00,163,,,,,,,,,,,,,,,,,
06/05/2017 0:00,135,,,,,,,,,,,,,,,,,
06/05/2017 1:00,75,,,,,,,,,,,,,,,,,
06/05/2017 2:00,43,,,,,,,,,,,,,,,,,
06/05/2017 3:00,22,,,,,,,,,,,,,,,,,
06/05/2017 4:00,-1,,,,,,,,,,,,,,,,,
06/05/2017 5:00,-2,,,,,,,,,,,,,,,,,
06/05/2017 6:00,9,,,,,,,,,,,,,,,,,
06/05/2017 7:00,82,,,,,,,,,,,,,,,,,
06/05/2017 8:00,168,,,,,,,,,,,,,,,,,
06/05/2017 9:00,181,,,,,,,,,,,,,,,,,
06/05/2017 10:00,210,,,,,,,,,,,,,,,,,
06/05/2017 11:00,201,,,,,,,,,,,,,,,,,
06/05/2017 12:00,202,,,,,,,,,,,,,,,,,
06/05/2017 13:00,205,,,,,,,,,,,,,,,,,
06/05/2017 14:00,209,,,,,,,,,,,,,,,,,
06/05/2017 15:00,206,,,,,,,,,,,,,,,,,
06/05/2017 16:00,205,,,,,,,,,,,,,,,,,
06/05/2017 17:00,214,,,,,,,,,,,,,,,,,
06/05/2017 18:00,219,,,,,,,,,,,,,,,,,
06/05/2017 19:00,204,,,,,,,,,,,,,,,,,
06/05/2017 20:00,179,,,,,,,,,,,,,,,,,
06/05/2017 21:00,190,,,,,,,,,,,,,,,,,
06/05/2017 22:00,198,,,,,,,,,,,,,,,,,
06/05/2017 23:00,137,,,,,,,,,,,,,,,,,
06/06/2017 0:00,96,,,,,,,,,,,,,,,,,
06/06/2017 1:00,60,,,,,,,,,,,,,,,,,
06/06/2017 2:00,47,,,,,,,,,,,,,,,,,
06/06/2017 3:00,37,,,,,,,,,,,,,,,,,
06/06/2017 4:00,31,,,,,,,,,,,,,,,,,
06/06/2017 5:00,31,,,,,,,,,,,,,,,,,
06/06/2017 6:00,47,,,,,,,,,,,,,,,,,
06/06/2017 7:00,121,,,,,,,,,,,,,,,,,
06/06/2017 8:00,215,,,,,,,,,,,,,,,,,
06/06/2017 9:00,235,,,,,,,,,,,,,,,,,
06/06/2017 10:00,232,,,,,,,,,,,,,,,,,
06/06/2017 11:00,229,,,,,,,,,,,,,,,,,
06/06/2017 12:00,223,,,,,,,,,,,,,,,,,
06/06/2017 13:00,204,,,,,,,,,,,,,,,,,
06/06/2017 14:00,183,,,,,,,,,,,,,,,,,
06/06/2017 15:00,159,,,,,,,,,,,,,,,,,
06/06/2017 16:00,154,,,,,,,,,,,,,,,,,
06/06/2017 17:00,161,,,,,,,,,,,,,,,,,
06/06/2017 18:00,183,,,,,,,,,,,,,,,,,
06/06/2017 19:00,186,,,,,,,,,,,,,,,,,
06/06/2017 20:00,185,,,,,,,,,,,,,,,,,
06/06/2017 21:00,115,,,,,,,,,,,,,,,,,
06/06/2017 22:00,71,,,,,,,,,,,,,,,,,
06/06/2017 23:00,44,,,,,,,,,,,,,,,,,
06/07/2017 0:00,55,,,,,,,,,,,,,,,,,
06/07/2017 1:00,67,,,,,,,,,,,,,,,,,
06/07/2017 2:00,58,,,,,,,,,,,,,,,,,
06/07/2017 3:00,104,,,,,,,,,,,,,,,,,
06/07/2017 4:00,133,,,,,,,,,,,,,,,,,
06/07/2017 5:00,131,,,,,,,,,,,,,,,,,
06/07/2017 6:00,140,,,,,,,,,,,,,,,,,
06/07/2017 7:00,233,,,,,,,,,,,,,,,,,
06/07/2017 8:00,251,,,,,,,,,,,,,,,,,
06/07/2017 9:00,254,,,,,,,,,,,,,,,,,
06/07/2017 10:00,257,,,,,,,,,,,,,,,,,
06/07/2017 11:00,285,,,,,,,,,,,,,,,,,
06/07/2017 12:00,294,,,,,,,,,,,,,,,,,
06/07/2017 13:00,284,,,,,,,,,,,,,,,,,
06/07/2017 14:00,284,,,,,,,,,,,,,,,,,
06/07/2017 15:00,274,,,,,,,,,,,,,,,,,
06/07/2017 16:00,280,,,,,,,,,,,,,,,,,
06/07/2017 17:00,292,,,,,,,,,,,,,,,,,
06/07/2017 18:00,294,,,,,,,,,,,,,,,,,
06/07/2017 19:00,291,,,,,,,,,,,,,,,,,
06/07/2017 20:00,257,,,,,,,,,,,,,,,,,
06/07/2017 21:00,248,,,,,,,,,,,,,,,,,
06/07/2017 22:00,222,,,,,,,,,,,,,,,,,
06/07/2017 23:00,153,,,,,,,,,,,,,,,,,
06/08/2017 0:00,85,,,,,,,,,,,,,,,,,
06/08/2017 1:00,56,,,,,,,,,,,,,,,,,
06/08/2017 2:00,66,,,,,,,,,,,,,,,,,
06/08/2017 3:00,63,,,,,,,,,,,,,,,,,
06/08/2017 4:00,59,,,,,,,,,,,,,,,,,
06/08/2017 5:00,51,,,,,,,,,,,,,,,,,
06/08/2017 6:00,47,,,,,,,,,,,,,,,,,
06/08/2017 7:00,107,,,,,,,,,,,,,,,,,
06/08/2017 8:00,149,,,,,,,,,,,,,,,,,
06/08/2017 9:00,189,,,,,,,,,,,,,,,,,
06/08/2017 10:00,181,,,,,,,,,,,,,,,,,
06/08/2017 11:00,160,,,,,,,,,,,,,,,,,
06/08/2017 12:00,163,,,,,,,,,,,,,,,,,
06/08/2017 13:00,137,,,,,,,,,,,,,,,,,
06/08/2017 14:00,181,,,,,,,,,,,,,,,,,
06/08/2017 15:00,148,,,,,,,,,,,,,,,,,
06/08/2017 16:00,170,,,,,,,,,,,,,,,,,
06/08/2017 17:00,171,,,,,,,,,,,,,,,,,
06/08/2017 18:00,162,,,,,,,,,,,,,,,,,
06/08/2017 19:00,136,,,,,,,,,,,,,,,,,
06/08/2017 20:00,143,,,,,,,,,,,,,,,,,
06/08/2017 21:00,147,,,,,,,,,,,,,,,,,
06/08/2017 22:00,154,,,,,,,,,,,,,,,,,
06/08/2017 23:00,121,,,,,,,,,,,,,,,,,
06/09/2017 0:00,73,,,,,,,,,,,,,,,,,
06/09/2017 1:00,51,,,,,,,,,,,,,,,,,
06/09/2017 2:00,2,,,,,,,,,,,,,,,,,
06/09/2017 3:00,9,,,,,,,,,,,,,,,,,
06/09/2017 4:00,7,,,,,,,,,,,,,,,,,
06/09/2017 5:00,13,,,,,,,,,,,,,,,,,
06/09/2017 6:00,13,,,,,,,,,,,,,,,,,
06/09/2017 7:00,33,,,,,,,,,,,,,,,,,
06/09/2017 8:00,125,,,,,,,,,,,,,,,,,
06/09/2017 9:00,92,,,,,,,,,,,,,,,,,
06/09/2017 10:00,107,,,,,,,,,,,,,,,,,
06/09/2017 11:00,102,,,,,,,,,,,,,,,,,
06/09/2017 12:00,80,,,,,,,,,,,,,,,,,
06/09/2017 13:00,84,,,,,,,,,,,,,,,,,
06/09/2017 14:00,96,,,,,,,,,,,,,,,,,
06/09/2017 15:00,57,,,,,,,,,,,,,,,,,
06/09/2017 16:00,96,,,,,,,,,,,,,,,,,
06/09/2017 17:00,133,,,,,,,,,,,,,,,,,
06/09/2017 18:00,147,,,,,,,,,,,,,,,,,
06/09/2017 19:00,123,,,,,,,,,,,,,,,,,
06/09/2017 20:00,58,,,,,,,,,,,,,,,,,
06/09/2017 21:00,48,,,,,,,,,,,,,,,,,
06/09/2017 22:00,66,,,,,,,,,,,,,,,,,
06/09/2017 23:00,32,,,,,,,,,,,,,,,,,
06/10/2017 0:00,34,,,,,,,,,,,,,,,,,
06/10/2017 1:00,-1,,,,,,,,,,,,,,,,,
06/10/2017 2:00,18,,,,,,,,,,,,,,,,,
06/10/2017 3:00,26,,,,,,,,,,,,,,,,,
06/10/2017 4:00,21,,,,,,,,,,,,,,,,,
06/10/2017 5:00,30,,,,,,,,,,,,,,,,,
06/10/2017 6:00,66,,,,,,,,,,,,,,,,,
06/10/2017 7:00,83,,,,,,,,,,,,,,,,,
06/10/2017 8:00,125,,,,,,,,,,,,,,,,,
06/10/2017 9:00,172,,,,,,,,,,,,,,,,,
06/10/2017 10:00,259,,,,,,,,,,,,,,,,,
06/10/2017 11:00,251,,,,,,,,,,,,,,,,,
06/10/2017 12:00,206,,,,,,,,,,,,,,,,,
06/10/2017 13:00,220,,,,,,,,,,,,,,,,,
06/10/2017 14:00,207,,,,,,,,,,,,,,,,,
06/10/2017 15:00,195,,,,,,,,,,,,,,,,,
06/10/2017 16:00,212,,,,,,,,,,,,,,,,,
06/10/2017 17:00,216,,,,,,,,,,,,,,,,,
06/10/2017 18:00,249,,,,,,,,,,,,,,,,,
06/10/2017 19:00,248,,,,,,,,,,,,,,,,,
06/10/2017 20:00,220,,,,,,,,,,,,,,,,,
06/10/2017 21:00,190,,,,,,,,,,,,,,,,,
06/10/2017 22:00,180,,,,,,,,,,,,,,,,,
06/10/2017 23:00,144,,,,,,,,,,,,,,,,,
06/11/2017 0:00,69,,,,,,,,,,,,,,,,,
06/11/2017 1:00,45,,,,,,,,,,,,,,,,,
06/11/2017 2:00,39,,,,,,,,,,,,,,,,,
06/11/2017 3:00,40,,,,,,,,,,,,,,,,,
06/11/2017 4:00,44,,,,,,,,,,,,,,,,,
06/11/2017 5:00,45,,,,,,,,,,,,,,,,,
06/11/2017 6:00,41,,,,,,,,,,,,,,,,,
06/11/2017 7:00,42,,,,,,,,,,,,,,,,,
06/11/2017 8:00,44,,,,,,,,,,,,,,,,,
06/11/2017 9:00,118,,,,,,,,,,,,,,,,,
06/11/2017 10:00,175,,,,,,,,,,,,,,,,,
06/11/2017 11:00,185,,,,,,,,,,,,,,,,,
06/11/2017 12:00,143,,,,,,,,,,,,,,,,,
06/11/2017 13:00,136,,,,,,,,,,,,,,,,,
06/11/2017 14:00,135,,,,,,,,,,,,,,,,,
06/11/2017 15:00,165,,,,,,,,,,,,,,,,,
06/11/2017 16:00,146,,,,,,,,,,,,,,,,,
06/11/2017 17:00,125,,,,,,,,,,,,,,,,,
06/11/2017 18:00,121,,,,,,,,,,,,,,,,,
06/11/2017 19:00,98,,,,,,,,,,,,,,,,,
06/11/2017 20:00,89,,,,,,,,,,,,,,,,,
06/11/2017 21:00,45,,,,,,,,,,,,,,,,,
06/11/2017 22:00,8,,,,,,,,,,,,,,,,,
06/11/2017 23:00,10,,,,,,,,,,,,,,,,,
06/12/2017 0:00,13,,,,,,,,,,,,,,,,,
06/12/2017 1:00,55,,,,,,,,,,,,,,,,,
06/12/2017 2:00,44,,,,,,,,,,,,,,,,,
06/12/2017 3:00,28,,,,,,,,,,,,,,,,,
06/12/2017 4:00,118,,,,,,,,,,,,,,,,,
06/12/2017 5:00,151,,,,,,,,,,,,,,,,,
06/12/2017 6:00,229,,,,,,,,,,,,,,,,,
06/12/2017 7:00,266,,,,,,,,,,,,,,,,,
06/12/2017 8:00,292,,,,,,,,,,,,,,,,,
06/12/2017 9:00,332,,,,,,,,,,,,,,,,,
06/12/2017 10:00,330,,,,,,,,,,,,,,,,,
06/12/2017 11:00,375,,,,,,,,,,,,,,,,,
06/12/2017 12:00,392,,,,,,,,,,,,,,,,,
06/12/2017 13:00,404,,,,,,,,,,,,,,,,,
06/12/2017 14:00,402,,,,,,,,,,,,,,,,,
06/12/2017 15:00,384,,,,,,,,,,,,,,,,,
06/12/2017 16:00,381,,,,,,,,,,,,,,,,,
06/12/2017 17:00,405,,,,,,,,,,,,,,,,,
06/12/2017 18:00,433,,,,,,,,,,,,,,,,,
06/12/2017 19:00,382,,,,,,,,,,,,,,,,,
06/12/2017 20:00,344,,,,,,,,,,,,,,,,,
06/12/2017 21:00,335,,,,,,,,,,,,,,,,,
06/12/2017 22:00,340,,,,,,,,,,,,,,,,,
06/12/2017 23:00,246,,,,,,,,,,,,,,,,,
06/13/2017 0:00,140,,,,,,,,,,,,,,,,,
06/13/2017 1:00,97,,,,,,,,,,,,,,,,,
06/13/2017 2:00,78,,,,,,,,,,,,,,,,,
06/13/2017 3:00,66,,,,,,,,,,,,,,,,,
06/13/2017 4:00,64,,,,,,,,,,,,,,,,,
06/13/2017 5:00,66,,,,,,,,,,,,,,,,,
06/13/2017 6:00,75,,,,,,,,,,,,,,,,,
06/13/2017 7:00,117,,,,,,,,,,,,,,,,,
06/13/2017 8:00,154,,,,,,,,,,,,,,,,,
06/13/2017 9:00,225,,,,,,,,,,,,,,,,,
06/13/2017 10:00,285,,,,,,,,,,,,,,,,,
06/13/2017 11:00,317,,,,,,,,,,,,,,,,,
06/13/2017 12:00,352,,,,,,,,,,,,,,,,,
06/13/2017 13:00,359,,,,,,,,,,,,,,,,,
06/13/2017 14:00,343,,,,,,,,,,,,,,,,,
06/13/2017 15:00,334,,,,,,,,,,,,,,,,,
06/13/2017 16:00,317,,,,,,,,,,,,,,,,,
06/13/2017 17:00,334,,,,,,,,,,,,,,,,,
06/13/2017 18:00,325,,,,,,,,,,,,,,,,,
06/13/2017 19:00,330,,,,,,,,,,,,,,,,,
06/13/2017 20:00,295,,,,,,,,,,,,,,,,,
06/13/2017 21:00,248,,,,,,,,,,,,,,,,,
06/13/2017 22:00,226,,,,,,,,,,,,,,,,,
06/13/2017 23:00,186,,,,,,,,,,,,,,,,,
06/14/2017 0:00,168,,,,,,,,,,,,,,,,,
06/14/2017 1:00,98,,,,,,,,,,,,,,,,,
06/14/2017 2:00,77,,,,,,,,,,,,,,,,,
06/14/2017 3:00,81,,,,,,,,,,,,,,,,,
06/14/2017 4:00,73,,,,,,,,,,,,,,,,,
06/14/2017 5:00,85,,,,,,,,,,,,,,,,,
06/14/2017 6:00,102,,,,,,,,,,,,,,,,,
06/14/2017 7:00,127,,,,,,,,,,,,,,,,,
06/14/2017 8:00,207,,,,,,,,,,,,,,,,,
06/14/2017 9:00,145,,,,,,,,,,,,,,,,,
06/14/2017 10:00,113,,,,,,,,,,,,,,,,,
06/14/2017 11:00,148,,,,,,,,,,,,,,,,,
06/14/2017 12:00,155,,,,,,,,,,,,,,,,,
06/14/2017 13:00,132,,,,,,,,,,,,,,,,,
06/14/2017 14:00,125,,,,,,,,,,,,,,,,,
06/14/2017 15:00,125,,,,,,,,,,,,,,,,,
06/14/2017 16:00,127,,,,,,,,,,,,,,,,,
06/14/2017 17:00,153,,,,,,,,,,,,,,,,,
06/14/2017 18:00,173,,,,,,,,,,,,,,,,,
06/14/2017 19:00,183,,,,,,,,,,,,,,,,,
06/14/2017 20:00,207,,,,,,,,,,,,,,,,,
06/14/2017 21:00,218,,,,,,,,,,,,,,,,,
06/14/2017 22:00,225,,,,,,,,,,,,,,,,,
06/14/2017 23:00,202,,,,,,,,,,,,,,,,,
06/15/2017 0:00,158,,,,,,,,,,,,,,,,,
06/15/2017 1:00,110,,,,,,,,,,,,,,,,,
06/15/2017 2:00,118,,,,,,,,,,,,,,,,,
06/15/2017 3:00,115,,,,,,,,,,,,,,,,,
06/15/2017 4:00,117,,,,,,,,,,,,,,,,,
06/15/2017 5:00,134,,,,,,,,,,,,,,,,,
06/15/2017 6:00,164,,,,,,,,,,,,,,,,,
06/15/2017 7:00,228,,,,,,,,,,,,,,,,,
06/15/2017 8:00,319,,,,,,,,,,,,,,,,,
06/15/2017 9:00,334,,,,,,,,,,,,,,,,,
06/15/2017 10:00,334,,,,,,,,,,,,,,,,,
06/15/2017 11:00,331,,,,,,,,,,,,,,,,,
06/15/2017 12:00,319,,,,,,,,,,,,,,,,,
06/15/2017 13:00,298,,,,,,,,,,,,,,,,,
06/15/2017 14:00,267,,,,,,,,,,,,,,,,,
06/15/2017 15:00,259,,,,,,,,,,,,,,,,,
06/15/2017 16:00,271,,,,,,,,,,,,,,,,,
06/15/2017 17:00,274,,,,,,,,,,,,,,,,,
06/15/2017 18:00,274,,,,,,,,,,,,,,,,,
06/15/2017 19:00,234,,,,,,,,,,,,,,,,,
06/15/2017 20:00,221,,,,,,,,,,,,,,,,,
06/15/2017 21:00,207,,,,,,,,,,,,,,,,,
06/15/2017 22:00,202,,,,,,,,,,,,,,,,,
06/15/2017 23:00,184,,,,,,,,,,,,,,,,,
06/16/2017 0:00,139,,,,,,,,,,,,,,,,,
06/16/2017 1:00,112,,,,,,,,,,,,,,,,,
06/16/2017 2:00,100,,,,,,,,,,,,,,,,,
06/16/2017 3:00,95,,,,,,,,,,,,,,,,,
06/16/2017 4:00,118,,,,,,,,,,,,,,,,,
06/16/2017 5:00,129,,,,,,,,,,,,,,,,,
06/16/2017 6:00,136,,,,,,,,,,,,,,,,,
06/16/2017 7:00,177,,,,,,,,,,,,,,,,,
06/16/2017 8:00,241,,,,,,,,,,,,,,,,,
06/16/2017 9:00,275,,,,,,,,,,,,,,,,,
06/16/2017 10:00,276,,,,,,,,,,,,,,,,,
06/16/2017 11:00,276,,,,,,,,,,,,,,,,,
06/16/2017 12:00,273,,,,,,,,,,,,,,,,,
06/16/2017 13:00,262,,,,,,,,,,,,,,,,,
06/16/2017 14:00,242,,,,,,,,,,,,,,,,,
06/16/2017 15:00,257,,,,,,,,,,,,,,,,,
06/16/2017 16:00,247,,,,,,,,,,,,,,,,,
06/16/2017 17:00,248,,,,,,,,,,,,,,,,,
06/16/2017 18:00,254,,,,,,,,,,,,,,,,,
06/16/2017 19:00,201,,,,,,,,,,,,,,,,,
06/16/2017 20:00,153,,,,,,,,,,,,,,,,,
06/16/2017 21:00,128,,,,,,,,,,,,,,,,,
06/16/2017 22:00,143,,,,,,,,,,,,,,,,,
06/16/2017 23:00,81,,,,,,,,,,,,,,,,,
06/17/2017 0:00,26,,,,,,,,,,,,,,,,,
06/17/2017 1:00,-10,,,,,,,,,,,,,,,,,
06/17/2017 2:00,51,,,,,,,,,,,,,,,,,
06/17/2017 3:00,51,,,,,,,,,,,,,,,,,
06/17/2017 4:00,29,,,,,,,,,,,,,,,,,
06/17/2017 5:00,11,,,,,,,,,,,,,,,,,
06/17/2017 6:00,-11,,,,,,,,,,,,,,,,,
06/17/2017 7:00,-21,,,,,,,,,,,,,,,,,
06/17/2017 8:00,5,,,,,,,,,,,,,,,,,
06/17/2017 9:00,18,,,,,,,,,,,,,,,,,
06/17/2017 10:00,-6,,,,,,,,,,,,,,,,,
06/17/2017 11:00,-4,,,,,,,,,,,,,,,,,
06/17/2017 12:00,-19,,,,,,,,,,,,,,,,,
06/17/2017 13:00,-18,,,,,,,,,,,,,,,,,
06/17/2017 14:00,-11,,,,,,,,,,,,,,,,,
06/17/2017 15:00,-12,,,,,,,,,,,,,,,,,
06/17/2017 16:00,-18,,,,,,,,,,,,,,,,,
06/17/2017 17:00,-26,,,,,,,,,,,,,,,,,
06/17/2017 18:00,-23,,,,,,,,,,,,,,,,,
06/17/2017 19:00,-22,,,,,,,,,,,,,,,,,
06/17/2017 20:00,-37,,,,,,,,,,,,,,,,,
06/17/2017 21:00,-38,,,,,,,,,,,,,,,,,
06/17/2017 22:00,-52,,,,,,,,,,,,,,,,,
06/17/2017 23:00,-13,,,,,,,,,,,,,,,,,
06/18/2017 0:00,20,,,,,,,,,,,,,,,,,
06/18/2017 1:00,-2,,,,,,,,,,,,,,,,,
06/18/2017 2:00,-31,,,,,,,,,,,,,,,,,
06/18/2017 3:00,-1,,,,,,,,,,,,,,,,,
06/18/2017 4:00,43,,,,,,,,,,,,,,,,,
06/18/2017 5:00,106,,,,,,,,,,,,,,,,,
06/18/2017 6:00,104,,,,,,,,,,,,,,,,,
06/18/2017 7:00,110,,,,,,,,,,,,,,,,,
06/18/2017 8:00,199,,,,,,,,,,,,,,,,,
06/18/2017 9:00,313,,,,,,,,,,,,,,,,,
06/18/2017 10:00,342,,,,,,,,,,,,,,,,,
06/18/2017 11:00,370,,,,,,,,,,,,,,,,,
06/18/2017 12:00,376,,,,,,,,,,,,,,,,,
06/18/2017 13:00,316,,,,,,,,,,,,,,,,,
06/18/2017 14:00,244,,,,,,,,,,,,,,,,,
06/18/2017 15:00,242,,,,,,,,,,,,,,,,,
06/18/2017 16:00,212,,,,,,,,,,,,,,,,,
06/18/2017 17:00,240,,,,,,,,,,,,,,,,,
06/18/2017 18:00,275,,,,,,,,,,,,,,,,,
06/18/2017 19:00,220,,,,,,,,,,,,,,,,,
06/18/2017 20:00,180,,,,,,,,,,,,,,,,,
06/18/2017 21:00,169,,,,,,,,,,,,,,,,,
06/18/2017 22:00,175,,,,,,,,,,,,,,,,,
06/18/2017 23:00,99,,,,,,,,,,,,,,,,,
06/19/2017 0:00,16,,,,,,,,,,,,,,,,,
06/19/2017 1:00,-7,,,,,,,,,,,,,,,,,
06/19/2017 2:00,-12,,,,,,,,,,,,,,,,,
06/19/2017 3:00,-14,,,,,,,,,,,,,,,,,
06/19/2017 4:00,-9,,,,,,,,,,,,,,,,,
06/19/2017 5:00,-12,,,,,,,,,,,,,,,,,
06/19/2017 6:00,-8,,,,,,,,,,,,,,,,,
06/19/2017 7:00,33,,,,,,,,,,,,,,,,,
06/19/2017 8:00,45,,,,,,,,,,,,,,,,,
06/19/2017 9:00,55,,,,,,,,,,,,,,,,,
06/19/2017 10:00,80,,,,,,,,,,,,,,,,,
06/19/2017 11:00,167,,,,,,,,,,,,,,,,,
06/19/2017 12:00,192,,,,,,,,,,,,,,,,,
06/19/2017 13:00,241,,,,,,,,,,,,,,,,,
06/19/2017 14:00,246,,,,,,,,,,,,,,,,,
06/19/2017 15:00,238,,,,,,,,,,,,,,,,,
06/19/2017 16:00,239,,,,,,,,,,,,,,,,,
06/19/2017 17:00,274,,,,,,,,,,,,,,,,,
06/19/2017 18:00,288,,,,,,,,,,,,,,,,,
06/19/2017 19:00,221,,,,,,,,,,,,,,,,,
06/19/2017 20:00,232,,,,,,,,,,,,,,,,,
06/19/2017 21:00,229,,,,,,,,,,,,,,,,,
06/19/2017 22:00,166,,,,,,,,,,,,,,,,,
06/19/2017 23:00,118,,,,,,,,,,,,,,,,,
06/20/2017 0:00,75,,,,,,,,,,,,,,,,,
06/20/2017 1:00,26,,,,,,,,,,,,,,,,,
06/20/2017 2:00,-16,,,,,,,,,,,,,,,,,
06/20/2017 3:00,-5,,,,,,,,,,,,,,,,,
06/20/2017 4:00,-6,,,,,,,,,,,,,,,,,
06/20/2017 5:00,-4,,,,,,,,,,,,,,,,,
06/20/2017 6:00,4,,,,,,,,,,,,,,,,,
06/20/2017 7:00,17,,,,,,,,,,,,,,,,,
06/20/2017 8:00,71,,,,,,,,,,,,,,,,,
06/20/2017 9:00,115,,,,,,,,,,,,,,,,,
06/20/2017 10:00,144,,,,,,,,,,,,,,,,,
06/20/2017 11:00,175,,,,,,,,,,,,,,,,,
06/20/2017 12:00,222,,,,,,,,,,,,,,,,,
06/20/2017 13:00,265,,,,,,,,,,,,,,,,,
06/20/2017 14:00,232,,,,,,,,,,,,,,,,,
06/20/2017 15:00,212,,,,,,,,,,,,,,,,,
06/20/2017 16:00,204,,,,,,,,,,,,,,,,,
06/20/2017 17:00,209,,,,,,,,,,,,,,,,,
06/20/2017 18:00,208,,,,,,,,,,,,,,,,,
06/20/2017 19:00,189,,,,,,,,,,,,,,,,,
06/20/2017 20:00,200,,,,,,,,,,,,,,,,,
06/20/2017 21:00,134,,,,,,,,,,,,,,,,,
06/20/2017 22:00,102,,,,,,,,,,,,,,,,,
06/20/2017 23:00,80,,,,,,,,,,,,,,,,,
06/21/2017 0:00,44,,,,,,,,,,,,,,,,,
06/21/2017 1:00,45,,,,,,,,,,,,,,,,,
06/21/2017 2:00,3,,,,,,,,,,,,,,,,,
06/21/2017 3:00,2,,,,,,,,,,,,,,,,,
06/21/2017 4:00,49,,,,,,,,,,,,,,,,,
06/21/2017 5:00,102,,,,,,,,,,,,,,,,,
06/21/2017 6:00,182,,,,,,,,,,,,,,,,,
06/21/2017 7:00,243,,,,,,,,,,,,,,,,,
06/21/2017 8:00,279,,,,,,,,,,,,,,,,,
06/21/2017 9:00,337,,,,,,,,,,,,,,,,,
06/21/2017 10:00,362,,,,,,,,,,,,,,,,,
06/21/2017 11:00,380,,,,,,,,,,,,,,,,,
06/21/2017 12:00,384,,,,,,,,,,,,,,,,,
06/21/2017 13:00,332,,,,,,,,,,,,,,,,,
06/21/2017 14:00,277,,,,,,,,,,,,,,,,,
06/21/2017 15:00,211,,,,,,,,,,,,,,,,,
06/21/2017 16:00,232,,,,,,,,,,,,,,,,,
06/21/2017 17:00,245,,,,,,,,,,,,,,,,,
06/21/2017 18:00,275,,,,,,,,,,,,,,,,,
06/21/2017 19:00,257,,,,,,,,,,,,,,,,,
06/21/2017 20:00,356,,,,,,,,,,,,,,,,,
06/21/2017 21:00,386,,,,,,,,,,,,,,,,,
06/21/2017 22:00,397,,,,,,,,,,,,,,,,,
06/21/2017 23:00,351,,,,,,,,,,,,,,,,,
06/22/2017 0:00,234,,,,,,,,,,,,,,,,,
06/22/2017 1:00,212,,,,,,,,,,,,,,,,,
06/22/2017 2:00,158,,,,,,,,,,,,,,,,,
06/22/2017 3:00,120,,,,,,,,,,,,,,,,,
06/22/2017 4:00,93,,,,,,,,,,,,,,,,,
06/22/2017 5:00,102,,,,,,,,,,,,,,,,,
06/22/2017 6:00,136,,,,,,,,,,,,,,,,,
06/22/2017 7:00,207,,,,,,,,,,,,,,,,,
06/22/2017 8:00,345,,,,,,,,,,,,,,,,,
06/22/2017 9:00,325,,,,,,,,,,,,,,,,,
06/22/2017 10:00,315,,,,,,,,,,,,,,,,,
06/22/2017 11:00,313,,,,,,,,,,,,,,,,,
06/22/2017 12:00,321,,,,,,,,,,,,,,,,,
06/22/2017 13:00,225,,,,,,,,,,,,,,,,,
06/22/2017 14:00,193,,,,,,,,,,,,,,,,,
06/22/2017 15:00,157,,,,,,,,,,,,,,,,,
06/22/2017 16:00,66,,,,,,,,,,,,,,,,,
06/22/2017 17:00,54,,,,,,,,,,,,,,,,,
06/22/2017 18:00,135,,,,,,,,,,,,,,,,,
06/22/2017 19:00,103,,,,,,,,,,,,,,,,,
06/22/2017 20:00,150,,,,,,,,,,,,,,,,,
06/22/2017 21:00,155,,,,,,,,,,,,,,,,,
06/22/2017 22:00,172,,,,,,,,,,,,,,,,,
06/22/2017 23:00,194,,,,,,,,,,,,,,,,,
06/23/2017 0:00,118,,,,,,,,,,,,,,,,,
06/23/2017 1:00,99,,,,,,,,,,,,,,,,,
06/23/2017 2:00,108,,,,,,,,,,,,,,,,,
06/23/2017 3:00,124,,,,,,,,,,,,,,,,,
06/23/2017 4:00,132,,,,,,,,,,,,,,,,,
06/23/2017 5:00,130,,,,,,,,,,,,,,,,,
06/23/2017 6:00,126,,,,,,,,,,,,,,,,,
06/23/2017 7:00,184,,,,,,,,,,,,,,,,,
06/23/2017 8:00,260,,,,,,,,,,,,,,,,,
06/23/2017 9:00,346,,,,,,,,,,,,,,,,,
06/23/2017 10:00,346,,,,,,,,,,,,,,,,,
06/23/2017 11:00,338,,,,,,,,,,,,,,,,,
06/23/2017 12:00,339,,,,,,,,,,,,,,,,,
06/23/2017 13:00,333,,,,,,,,,,,,,,,,,
06/23/2017 14:00,334,,,,,,,,,,,,,,,,,
06/23/2017 15:00,332,,,,,,,,,,,,,,,,,
06/23/2017 16:00,329,,,,,,,,,,,,,,,,,
06/23/2017 17:00,344,,,,,,,,,,,,,,,,,
06/23/2017 18:00,317,,,,,,,,,,,,,,,,,
06/23/2017 19:00,298,,,,,,,,,,,,,,,,,
06/23/2017 20:00,252,,,,,,,,,,,,,,,,,
06/23/2017 21:00,136,,,,,,,,,,,,,,,,,
06/23/2017 22:00,81,,,,,,,,,,,,,,,,,
06/23/2017 23:00,31,,,,,,,,,,,,,,,,,
06/24/2017 0:00,31,,,,,,,,,,,,,,,,,
06/24/2017 1:00,-10,,,,,,,,,,,,,,,,,
06/24/2017 2:00,-27,,,,,,,,,,,,,,,,,
06/24/2017 3:00,-16,,,,,,,,,,,,,,,,,
06/24/2017 4:00,2,,,,,,,,,,,,,,,,,
06/24/2017 5:00,9,,,,,,,,,,,,,,,,,
06/24/2017 6:00,11,,,,,,,,,,,,,,,,,
06/24/2017 7:00,14,,,,,,,,,,,,,,,,,
06/24/2017 8:00,39,,,,,,,,,,,,,,,,,
06/24/2017 9:00,76,,,,,,,,,,,,,,,,,
06/24/2017 10:00,107,,,,,,,,,,,,,,,,,
06/24/2017 11:00,166,,,,,,,,,,,,,,,,,
06/24/2017 12:00,154,,,,,,,,,,,,,,,,,
06/24/2017 13:00,118,,,,,,,,,,,,,,,,,
06/24/2017 14:00,93,,,,,,,,,,,,,,,,,
06/24/2017 15:00,100,,,,,,,,,,,,,,,,,
06/24/2017 16:00,128,,,,,,,,,,,,,,,,,
06/24/2017 17:00,145,,,,,,,,,,,,,,,,,
06/24/2017 18:00,147,,,,,,,,,,,,,,,,,
06/24/2017 19:00,180,,,,,,,,,,,,,,,,,
06/24/2017 20:00,245,,,,,,,,,,,,,,,,,
06/24/2017 21:00,277,,,,,,,,,,,,,,,,,
06/24/2017 22:00,256,,,,,,,,,,,,,,,,,
06/24/2017 23:00,248,,,,,,,,,,,,,,,,,
06/25/2017 0:00,205,,,,,,,,,,,,,,,,,
06/25/2017 1:00,228,,,,,,,,,,,,,,,,,
06/25/2017 2:00,161,,,,,,,,,,,,,,,,,
06/25/2017 3:00,120,,,,,,,,,,,,,,,,,
06/25/2017 4:00,62,,,,,,,,,,,,,,,,,
06/25/2017 5:00,52,,,,,,,,,,,,,,,,,
06/25/2017 6:00,15,,,,,,,,,,,,,,,,,
06/25/2017 7:00,3,,,,,,,,,,,,,,,,,
06/25/2017 8:00,44,,,,,,,,,,,,,,,,,
06/25/2017 9:00,145,,,,,,,,,,,,,,,,,
06/25/2017 10:00,235,,,,,,,,,,,,,,,,,
06/25/2017 11:00,251,,,,,,,,,,,,,,,,,
06/25/2017 12:00,274,,,,,,,,,,,,,,,,,
06/25/2017 13:00,294,,,,,,,,,,,,,,,,,
06/25/2017 14:00,273,,,,,,,,,,,,,,,,,
06/25/2017 15:00,215,,,,,,,,,,,,,,,,,
06/25/2017 16:00,176,,,,,,,,,,,,,,,,,
06/25/2017 17:00,167,,,,,,,,,,,,,,,,,
06/25/2017 18:00,232,,,,,,,,,,,,,,,,,
06/25/2017 19:00,286,,,,,,,,,,,,,,,,,
06/25/2017 20:00,287,,,,,,,,,,,,,,,,,
06/25/2017 21:00,316,,,,,,,,,,,,,,,,,
06/25/2017 22:00,308,,,,,,,,,,,,,,,,,
06/25/2017 23:00,230,,,,,,,,,,,,,,,,,
06/26/2017 0:00,73,,,,,,,,,,,,,,,,,
06/26/2017 1:00,1,,,,,,,,,,,,,,,,,
06/26/2017 2:00,-15,,,,,,,,,,,,,,,,,
06/26/2017 3:00,-22,,,,,,,,,,,,,,,,,
06/26/2017 4:00,-14,,,,,,,,,,,,,,,,,
06/26/2017 5:00,9,,,,,,,,,,,,,,,,,
06/26/2017 6:00,45,,,,,,,,,,,,,,,,,
06/26/2017 7:00,145,,,,,,,,,,,,,,,,,
06/26/2017 8:00,252,,,,,,,,,,,,,,,,,
06/26/2017 9:00,252,,,,,,,,,,,,,,,,,
06/26/2017 10:00,330,,,,,,,,,,,,,,,,,
06/26/2017 11:00,375,,,,,,,,,,,,,,,,,
06/26/2017 12:00,406,,,,,,,,,,,,,,,,,
06/26/2017 13:00,346,,,,,,,,,,,,,,,,,
06/26/2017 14:00,300,,,,,,,,,,,,,,,,,
06/26/2017 15:00,293,,,,,,,,,,,,,,,,,
06/26/2017 16:00,286,,,,,,,,,,,,,,,,,
06/26/2017 17:00,332,,,,,,,,,,,,,,,,,
06/26/2017 18:00,340,,,,,,,,,,,,,,,,,
06/26/2017 19:00,360,,,,,,,,,,,,,,,,,
06/26/2017 20:00,347,,,,,,,,,,,,,,,,,
06/26/2017 21:00,305,,,,,,,,,,,,,,,,,
06/26/2017 22:00,287,,,,,,,,,,,,,,,,,
06/26/2017 23:00,217,,,,,,,,,,,,,,,,,
06/27/2017 0:00,126,,,,,,,,,,,,,,,,,
06/27/2017 1:00,80,,,,,,,,,,,,,,,,,